STARLINK-11746, 64372

Orbit data source: Space-Track

STARLINK-11746, 64372 is a payload satellite owned by SpaceX/Seattle (US) in LEO that was launched on Fri, 13 Jun 2025 UTC via an FALCON 9 launch vehicle from the Air Force Eastern Test Range (AFETR). Payload-class satellites include a variety of spacecraft equipped with specific instruments for various scientific and technological missions. These include communications satellites like Starlink; space stations such as the ISS; scientific satellites like the Hubble; Earth observation satellites from companies like Planet Labs, Umbra, and HawkEye 360; GPS; miniature CubeSats for education and research; and military/defense satellites.

Loading next visibility...
Identifier
64372, 2025-127C
Orbit
LEO
Country
Flag of USUS
Related business
Manufacturer
SpaceX/Seattle
Mission
Operational Commercial Communications
Bus & Motor
STARLINK V2MD, Unknown motor
Mass
960 kg wet, ~910 kg dry
Launch date (UTC)
2025-06-13 (10 months ago)
Launch vehicle
FALCON 9
Launch site
Air Force Eastern Test Range (AFETR)
Object type
Payload
Rocket body
Debris
Shape & HBR
Box + 2 Pan, 18.1 m
Radar Cross Section
36.964 m², Large (>1 m²)

Expand to show TLE details & history
Last TLE update: 6 hours ago

TLE from 6 hours ago
0 STARLINK-11746
1 64372U 25127C   26095.58192237  .00153878  00000-0  11778-2 0  9996
2 64372  42.9999 282.2749 0001698 239.9002 120.1698 15.70897094 47737
Epoch: 2026-04-05T13:57Z
TLE epoch observation values (Epoch: 2026-04-05T13:57:58.092Z)
Latitude
0.00001°
Longitude
-121.10242°
Altitude
356.678 km
Speed
7.697 km/s
True Right ascension
18h 49m 05s
True Declination
0° 00' 00"
Sunlit
Object was in daylight at epoch
Visualization orbit readout
Latitude
Unknown
Longitude
Unknown
Altitude
Unknown
Speed
Unknown
Apparent Right ascension
Unknown
Apparent Declination
Unknown
Sunlit
N/A
Visualization observer readout
Local Sidereal Time
02:23:30
Azimuth
Unknown
Elevation
Unknown
Doppler factor
Unknown
Orbital elements
Apogee altitude
359.457 km
Perigee altitude
357.17 km
Semi-major axis
6,736.451 km
Eccentricity
0.00017
Inclination
42.9999°
RAAN
282.2749°
Arg. of periapsis
239.9002°
True anomaly
120.18662°
Mean anomaly
120.1698°
Eccentric anomaly
120.17821°
Mean motion
3.92551 °/min
Orbital period
91.71 mins
BSTAR
0.0011778
Loading maneuver chart data...
Computing Atmospheric mass density...
Loading historical data...
Loading historical data...
Loading historical data...
Loading historical data...
Loading historical data...
Loading historical data...
Loading historical data...

Documentation

Showing up to 5 results
|